ORBCOMM FM06 1 25118U 97084G 26118.51435858 .00001393 00000+0 41504-3 0 9994 2 25118 45.0140 291.8163 0000492 92.2131 304.5282 14.47435476487194 ORBCOMM FM04 1 25159U 98007C 26118.43649412 .00001160 00000+0 44359-3 0 9992 2 25159 107.9615 67.0394 0039347 51.7610 308.7062 14.35637358469457 ORBCOMM FM19 1 25415U 98046C 26118.40450986 .00001023 00000+0 37140-3 0 9991 2 25415 44.9927 120.1760 0002293 13.2383 130.8723 14.39394170449605 ORBCOMM FM20 1 25416U 98046D 26118.40977525 .00000656 00000+0 26159-3 0 9994 2 25416 44.9926 127.5292 0001761 288.6968 71.3689 14.37988972449621 ORBCOMM FM27 1 25481U 98053G 26118.55157522 .00000954 00000+0 35164-3 0 9994 2 25481 45.0045 211.0876 0001565 238.6512 121.4184 14.39045324443084 ORBCOMM FM32 1 25982U 99065C 26118.51593446 .00000891 00000+0 34491-3 0 9991 2 25982 45.0165 48.3374 0004480 176.6311 183.4568 14.37058211379948 ORBCOMM FM109 1 40086U 14040A 26118.30690593 .00000504 00000+0 14300-3 0 9999 2 40086 47.0042 327.3072 0001667 338.8521 21.2296 14.58791408627061 ORBCOMM FM114 1 41179U 15081A 26118.32451140 .00000552 00000+0 15323-3 0 9993 2 41179 47.0044 237.7382 0002470 311.6414 48.4260 14.58802027550470 ORBCOMM FM110 1 41182U 15081D 26118.38176102 .00000764 00000+0 19804-3 0 9998 2 41182 47.0016 236.9224 0003652 213.3999 146.6657 14.58824183550353 ORBCOMM FM118 1 41183U 15081E 26118.34796963 .00000785 00000+0 20257-3 0 9995 2 41183 47.0033 237.4076 0003260 179.9483 180.1404 14.58821937550452 ORBCOMM FM112 1 41184U 15081F 26118.48788660 .00000540 00000+0 15065-3 0 9996 2 41184 46.9980 145.2239 0002629 313.7389 46.3278 14.58792089551694 ORBCOMM FM113 1 41185U 15081G 26118.46536259 .00000435 00000+0 12840-3 0 9991 2 41185 46.9992 145.7085 0002136 313.1850 46.8857 14.58802295551679 ORBCOMM FM108 1 41187U 15081J 26118.22244850 .00000707 00000+0 18615-3 0 9998 2 41187 47.0055 58.4129 0003201 320.4313 39.6338 14.58793937552780 ORBCOMM FM117 1 41188U 15081K 26118.53032847 .00000738 00000+0 19260-3 0 9995 2 41188 47.0023 55.6067 0003610 327.6826 32.3839 14.58793241552872 ORBCOMM FM116 1 41189U 15081L 26118.51117389 .00000475 00000+0 13676-3 0 9992 2 41189 47.0009 145.4881 0002219 228.0727 131.9970 14.58813006551689